Wind_Speed
52 51 51 50 50 49 47 46 46 46 46 46 45 44 44 44 44 44 44 43 42 41 40 39 39 38 37 37 36 36 36 36 36 36 36 35 35 36 37 38 39 40 40
54 53 51 50 49 49 48 48 47 46 47 47 47 46 46 47 47 46 46 45 45 45 44 42 41 41 40 40 39 39 39 38 39 39 39 37 37 37 39 40 41 41 42
54 53 52 51 50 50 50 49 49 48 49 49 49 48 48 49 49 48 48 47 47 46 45 44 44 44 43 42 42 41 41 41 41 41 41 41 40 40 39 40 41 42 43
53 54 53 53 52 51 51 51 51 50 50 50 50 50 50 50 50 49 49 49 49 48 47 47 47 46 46 45 44 44 43 43 43 43 43 43 43 43 42 41 41 42 43
50 52 53 53 53 53 53 52 52 52 51 50 51 50 51 51 51 51 50 50 50 51 50 49 48 48 47 47 47 46 46 45 45 45 44 44 44 44 45 44 44 44 44
49 49 50 52 52 53 53 53 52 52 52 52 51 51 52 52 52 53 52 52 52 51 51 52 51 50 50 49 48 48 48 47 47 46 46 46 46 46 46 46 46 46 45
47 47 48 49 50 51 52 52 52 51 52 52 52 53 52 52 52 53 53 54 54 52 52 52 52 51 51 50 50 50 49 49 49 48 48 48 48 47 47 47 46 46 45
44 45 46 47 48 49 50 50 51 51 51 52 52 52 52 52 53 53 53 53 53 53 53 52 52 52 52 52 52 52 52 51 51 50 49 49 49 49 48 48 47 46 46
41 42 44 45 46 47 48 48 49 50 49 49 50 50 51 52 53 53 53 52 52 53 53 53 53 53 52 52 52 52 51 51 52 51 50 49 48 47 47 47 47 47 46
38 39 41 42 44 45 46 47 47 48 49 49 49 50 51 51 52 52 52 52 51 51 52 52 53 52 52 52 52 52 52 52 51 50 49 49 48 47 47 47 46 46 46
36 37 38 39 40 42 43 44 45 46 47 48 48 48 49 50 50 51 51 51 51 51 51 52 52 52 52 52 52 52 51 50 50 49 48 47 47 47 47 47 47 46 45
34 35 36 37 37 39 40 42 43 44 44 45 46 46 47 47 49 49 50 51 51 51 51 51 52 51 51 51 51 51 50 49 48 48 48 48 48 47 46 46 46 45 44
33 34 34 35 35 36 38 39 40 41 42 44 45 45 45 46 47 47 48 49 50 50 50 50 50 51 51 51 50 49 48 48 48 48 48 47 47 46 45 45 44 43 42
32 33 34 34 35 36 37 38 38 39 40 42 43 43 44 44 45 45 45 46 46 47 48 48 48 48 48 48 48 47 47 47 47 46 45 45 44 44 43 43 42 41 40
31 32 33 34 35 36 37 38 38 39 39 40 41 42 42 43 43 43 43 43 44 44 45 45 45 45 45 45 45 45 45 45 44 44 43 43 42 42 41 40 39 39 38
30 31 31 32 33 34 35 36 37 38 38 39 39 40 40 41 42 42 42 42 42 42 43 43 43 43 43 43 43 43 43 43 43 42 42 41 40 40 39 38 38 38 38
28 30 31 31 32 32 33 34 35 36 37 37 38 38 39 39 39 40 40 40 41 41 41 41 41 41 41 41 42 42 42 42 41 41 40 39 39 38 38 37 37 37 37
27 28 29 30 30 31 32 33 33 34 35 36 37 37 38 38 39 39 39 39 39 39 39 39 39 39 40 40 40 40 40 40 39 38 38 37 37 37 36 36 36 36 37
26 27 28 29 29 30 31 31 32 32 34 35 35 36 36 36 37 37 37 37 37 37 38 38 37 37 38 38 38 38 37 37 36 36 36 36 36 35 35 35 35 36 37
26 26 27 28 29 29 30 30 31 31 32 32 33 33 34 34 34 35 35 35 35 35 36 36 35 35 35 35 35 35 35 34 35 35 35 34 34 34 34 34 35 36 36
24 25 26 27 27 28 29 29 29 30 30 30 30 31 32 32 32 32 32 32 33 33 33 33 32 33 32 33 33 33 33 33 33 33 33 33 33 33 34 35 35 35 36
22 23 24 25 26 26 27 27 27 27 28 28 29 29 29 29 29 29 30 30 30 30 30 30 31 31 31 31 32 32 32 32 32 32 32 32 33 33 34 34 34 35 35
21 22 22 24 25 25 26 26 26 26 26 26 27 27 27 28 28 28 28 28 29 29 29 29 29 30 30 30 31 31 31 31 31 31 32 32 33 33 34 34 34 35 35
21 21 21 22 23 24 25 25 26 26 26 26 26 26 26 26 26 27 27 27 28 28 29 29 29 29 30 30 30 30 31 31 31 32 32 32 33 33 33 34 35 35 36
21 21 21 22 22 23 24 24 25 25 26 26 26 26 26 26 26 26 27 27 27 28 28 28 29 29 29 29 29 30 30 31 31 31 32 32 32 33 34 34 35 36 37
22 22 23 23 23 23 24 24 24 25 25 25 25 26 26 26 26 26 26 27 27 28 28 28 29 28 28 28 29 29 29 30 30 31 31 32 33 33 34 35 36 37 38
Wind_Direction
226 228 229 229 231 232 234 236 238 240 242 242 242 244 246 248 250 253 254 255 257 259 261 263 266 269 270 272 274 276 278 279 281 283 284 285 286 288 290 293 295 296 297
226 228 230 231 232 233 234 236 238 240 242 244 244 245 246 248 249 251 253 254 256 259 260 262 265 267 269 271 273 275 277 278 280 283 283 284 284 286 289 292 294 295 296
226 228 230 231 233 234 235 237 239 241 242 244 245 246 247 248 249 250 252 253 255 257 260 262 264 266 268 270 272 274 276 277 279 282 284 283 283 284 287 290 292 294 295
228 229 230 231 232 235 236 238 241 242 243 245 245 246 247 247 247 249 251 253 254 256 259 261 263 265 266 269 271 272 274 276 278 280 282 283 284 285 286 287 290 292 293
229 230 231 232 233 235 237 239 240 242 244 245 246 247 248 248 249 250 252 254 255 257 258 260 262 264 266 268 270 271 273 275 277 280 281 283 284 285 287 288 289 290 291
230 231 232 233 234 235 237 239 240 242 243 244 246 247 248 249 251 252 253 254 255 258 259 260 261 263 265 267 269 270 271 274 276 278 280 282 283 284 286 288 289 289 291
230 231 233 233 234 236 238 240 241 242 244 245 247 248 249 250 251 252 253 254 256 258 260 261 261 263 265 266 268 270 271 273 275 277 279 280 282 283 285 287 288 288 289
232 233 234 234 235 237 238 240 242 243 245 247 248 249 251 252 253 254 255 256 257 258 259 261 262 263 265 267 269 270 271 273 275 276 278 280 282 283 284 286 286 287 289
232 234 234 235 236 237 239 242 244 245 246 248 250 252 253 255 256 257 258 258 258 259 261 261 262 264 265 266 268 270 271 273 275 276 278 280 282 283 284 285 286 287 288
232 234 235 236 237 239 241 242 244 246 248 250 252 253 254 256 257 258 259 260 260 261 262 262 264 265 266 267 269 270 272 273 275 277 278 280 281 282 283 284 285 286 288
232 234 235 236 238 240 242 244 246 248 250 252 254 255 256 257 258 259 260 261 261 262 263 265 266 267 268 270 270 271 273 274 276 277 278 280 281 282 283 284 284 285 286
234 235 237 238 239 240 242 244 246 248 250 252 254 256 257 258 259 260 261 261 263 264 265 266 267 267 268 270 271 272 273 275 276 276 278 279 281 281 282 283 283 284 285
236 238 239 242 243 244 245 246 248 249 251 252 254 256 258 259 260 261 262 263 264 265 265 266 267 268 268 269 271 271 273 274 275 276 277 279 279 280 281 282 283 283 284
238 240 242 244 246 247 248 249 251 252 253 254 256 257 258 259 261 262 263 264 265 266 266 267 267 268 269 269 270 271 271 272 275 276 277 278 279 280 281 281 281 282 283
240 242 244 246 247 249 250 251 253 254 255 256 257 258 259 260 261 263 264 265 266 266 266 267 267 268 268 269 269 270 271 272 273 275 277 278 279 279 279 280 280 281 283
242 243 246 247 249 251 252 253 254 255 256 256 258 259 260 260 261 262 264 265 265 266 266 266 267 267 267 268 268 269 270 272 274 275 276 277 277 278 278 279 280 281 283
244 245 247 249 250 252 254 254 255 256 256 257 258 259 260 261 261 262 263 264 265 265 265 266 266 267 267 268 268 269 270 271 273 274 274 275 276 277 277 278 280 281 283
245 246 248 250 252 253 254 255 256 257 257 258 259 260 261 261 261 262 263 264 264 264 265 266 266 266 267 268 268 269 270 270 271 271 273 274 275 276 277 279 280 282 284
247 248 249 251 252 253 254 256 257 257 258 259 260 260 260 261 261 262 263 264 264 264 265 265 266 268 268 268 268 268 268 268 269 271 272 273 274 276 277 279 281 283 285
249 251 251 251 252 254 255 257 258 259 259 260 260 260 260 261 261 262 263 263 264 264 265 265 266 267 268 268 267 267 267 267 269 271 272 273 274 276 278 280 283 284 286
250 251 252 252 253 255 256 257 258 259 260 260 261 261 260 261 262 262 262 262 263 263 264 265 266 266 267 267 267 267 268 269 270 271 272 273 275 277 279 281 283 285 287
250 251 252 252 254 255 256 256 257 259 260 260 260 260 260 260 261 261 261 261 262 263 263 264 265 266 266 266 267 267 268 270 271 271 272 274 276 278 280 282 284 286 288
251 252 253 254 254 255 256 256 257 258 259 260 260 260 260 261 261 261 261 261 261 261 263 264 266 266 266 266 267 268 268 270 271 272 273 275 278 279 281 283 285 287 289
252 253 254 255 255 255 256 256 257 257 259 260 260 260 260 261 262 261 261 262 262 263 264 266 267 267 267 267 267 268 269 270 271 273 275 277 278 280 282 284 286 288 290
253 253 253 255 256 256 256 257 258 258 259 259 259 260 261 262 263 262 262 263 264 265 265 266 267 267 268 268 268 269 270 272 273 275 277 278 280 281 284 286 287 289 291
254 255 256 257 257 258 258 259 259 259 260 261 262 262 261 262 263 263 264 264 265 266 266 267 268 268 268 268 269 270 272 273 275 277 278 279 281 283 285 287 289 291 292
Height
5765 5771 5777 5783 5788 5794 5798 5803 5807 5810 5813 5817 5820 5823 5825 5827 5829 5831 5832 5833 5835 5836 5837 5837 5837 5838 5838 5838 5837 5837 5836 5835 5833 5832 5831 5830 5827 5825 5822 5820 5817 5814 5811
5757 5763 5769 5775 5781 5786 5790 5794 5798 5802 5805 5808 5811 5814 5817 5819 5821 5822 5824 5825 5826 5828 5828 5829 5830 5830 5830 5830 5829 5829 5828 5827 5826 5825 5823 5822 5821 5818 5815 5812 5809 5806 5803
5749 5755 5761 5767 5772 5777 5782 5786 5790 5793 5797 5799 5803 5805 5808 5810 5812 5814 5815 5816 5818 5819 5820 5821 5821 5821 5822 5821 5821 5821 5820 5819 5818 5816 5814 5813 5812 5811 5809 5805 5801 5797 5794
5741 5747 5753 5758 5764 5768 5773 5777 5781 5784 5787 5791 5794 5797 5799 5801 5803 5804 5806 5807 5808 5810 5811 5812 5812 5813 5813 5813 5812 5812 5811 5810 5809 5808 5806 5804 5802 5800 5799 5798 5794 5790 5786
5732 5738 5744 5749 5754 5759 5763 5767 5771 5775 5778 5781 5785 5787 5789 5791 5793 5795 5796 5798 5799 5800 5801 5802 5803 5803 5804 5803 5803 5802 5801 5801 5800 5798 5797 5795 5792 5790 5788 5787 5785 5781 5777
5724 5729 5734 5739 5744 5749 5754 5758 5762 5765 5769 5772 5774 5777 5780 5781 5783 5785 5787 5788 5789 5790 5791 5792 5793 5793 5794 5794 5793 5792 5792 5791 5790 5788 5787 5785 5783 5781 5778 5776 5774 5771 5768
5715 5720 5725 5730 5735 5740 5744 5748 5752 5755 5758 5762 5764 5767 5769 5771 5773 5775 5777 5778 5779 5780 5781 5782 5783 5783 5783 5783 5783 5782 5781 5780 5779 5778 5776 5775 5773 5770 5768 5765 5763 5760 5758
5707 5712 5717 5721 5726 5730 5734 5738 5742 5745 5748 5751 5754 5756 5759 5761 5763 5764 5766 5767 5768 5769 5770 5771 5771 5772 5772 5772 5772 5771 5771 5770 5769 5767 5766 5764 5762 5760 5757 5755 5752 5750 5747
5699 5704 5708 5712 5717 5721 5725 5729 5732 5735 5738 5741 5743 5746 5748 5749 5751 5753 5754 5756 5757 5758 5758 5759 5760 5761 5760 5760 5760 5760 5759 5759 5758 5756 5755 5753 5751 5749 5746 5744 5741 5739 5736
5691 5696 5700 5704 5708 5712 5716 5719 5722 5725 5728 5730 5733 5735 5737 5738 5740 5741 5743 5744 5745 5746 5747 5748 5748 5749 5749 5749 5749 5749 5748 5747 5746 5745 5743 5742 5740 5738 5736 5733 5730 5727 5725
5684 5688 5692 5696 5700 5703 5707 5710 5713 5716 5718 5721 5722 5724 5726 5727 5729 5730 5731 5733 5734 5735 5735 5736 5737 5737 5737 5737 5737 5737 5736 5735 5734 5733 5732 5731 5729 5727 5724 5722 5719 5717 5714
5677 5681 5685 5688 5692 5695 5698 5701 5704 5706 5709 5710 5712 5714 5716 5717 5718 5719 5720 5721 5722 5723 5724 5725 5725 5725 5726 5725 5725 5725 5724 5724 5723 5722 5721 5719 5717 5716 5713 5711 5708 5706 5703
5670 5674 5677 5680 5683 5687 5689 5692 5694 5696 5698 5700 5702 5704 5705 5706 5707 5708 5709 5710 5711 5712 5712 5713 5713 5714 5714 5714 5714 5714 5713 5712 5711 5710 5709 5708 5706 5704 5702 5700 5697 5695 5692
5664 5667 5670 5673 5676 5678 5681 5683 5685 5687 5689 5690 5692 5693 5694 5696 5696 5697 5698 5699 5699 5700 5700 5701 5701 5702 5702 5702 5702 5702 5702 5701 5700 5699 5698 5696 5695 5693 5691 5689 5686 5684 5682
5657 5659 5662 5665 5667 5670 5672 5674 5676 5677 5679 5680 5681 5683 5684 5685 5686 5686 5687 5688 5688 5689 5689 5689 5690 5690 5690 5690 5690 5690 5690 5689 5689 5688 5687 5685 5684 5682 5680 5678 5676 5674 5672
5650 5652 5655 5657 5659 5661 5663 5665 5666 5668 5669 5670 5671 5672 5673 5674 5675 5676 5676 5677 5677 5677 5678 5678 5678 5679 5679 5679 5679 5679 5679 5678 5678 5677 5675 5674 5673 5671 5669 5668 5666 5664 5662
5643 5645 5647 5649 5651 5653 5654 5656 5657 5658 5659 5660 5661 5662 5663 5664 5664 5665 5666 5666 5666 5667 5667 5667 5667 5668 5668 5668 5668 5668 5668 5667 5667 5666 5665 5664 5662 5661 5659 5658 5656 5654 5651
5636 5637 5639 5641 5643 5644 5646 5647 5648 5649 5650 5651 5651 5652 5653 5654 5654 5655 5655 5656 5656 5656 5657 5657 5657 5657 5657 5657 5657 5657 5657 5656 5656 5655 5654 5653 5652 5651 5649 5648 5646 5644 5641
5629 5630 5632 5633 5635 5636 5637 5638 5639 5640 5640 5641 5642 5642 5643 5644 5644 5645 5645 5646 5646 5646 5646 5647 5647 5647 5647 5647 5647 5647 5646 5646 5646 5645 5644 5643 5642 5641 5639 5638 5636 5634 5631
5622 5623 5624 5625 5627 5628 5629 5630 5630 5631 5631 5632 5633 5633 5634 5634 5635 5635 5636 5636 5636 5636 5637 5637 5637 5637 5637 5637 5637 5637 5636 5636 5636 5635 5635 5634 5632 5631 5629 5628 5626 5624 5621
5614 5615 5617 5618 5619 5620 5621 5621 5622 5622 5623 5623 5624 5624 5625 5625 5626 5626 5626 5627 5627 5627 5628 5628 5628 5628 5628 5628 5628 5627 5627 5627 5626 5626 5625 5624 5623 5622 5620 5618 5616 5614 5611
5608 5608 5609 5610 5611 5612 5613 5614 5614 5615 5615 5615 5616 5616 5617 5617 5617 5617 5618 5618 5618 5619 5619 5619 5619 5619 5619 5619 5619 5618 5618 5618 5617 5617 5616 5615 5614 5612 5610 5608 5606 5604 5601
5601 5602 5602 5603 5604 5605 5605 5606 5607 5607 5608 5608 5608 5608 5609 5609 5609 5609 5610 5610 5610 5611 5611 5611 5611 5611 5610 5610 5610 5610 5609 5609 5608 5608 5607 5606 5604 5603 5601 5599 5596 5594 5591
5594 5595 5596 5596 5597 5598 5598 5599 5599 5600 5600 5601 5601 5601 5601 5601 5602 5602 5602 5602 5602 5602 5603 5603 5603 5602 5602 5601 5601 5601 5600 5600 5599 5598 5597 5596 5595 5593 5591 5589 5587 5584 5581
5588 5589 5589 5590 5590 5591 5591 5592 5592 5593 5593 5593 5593 5594 5594 5594 5594 5594 5594 5594 5595 5594 5595 5594 5594 5594 5593 5593 5593 5592 5592 5591 5590 5589 5588 5587 5585 5584 5582 5579 5577 5574 5570
5581 5582 5582 5583 5583 5584 5584 5585 5585 5585 5586 5586 5586 5586 5586 5586 5586 5586 5587 5586 5586 5586 5586 5586 5586 5585 5585 5585 5584 5584 5583 5582 5581 5580 5579 5577 5576 5574 5572 5569 5566 5563 5560